Location: Unspecified
(0.0000°N, 0.0000°E)
Time: 22:11:47
(UTC+00:00)

FREGAT R/B - Visible Passes

Search period start: 29 April 2025 00:00
Search period end: 09 May 2025 00:00
Orbit: 23523 x 23605 km, 55.5° (Epoch: 27 April)

Date Brightness Start Highest point End Pass type
(mag) Time Alt. Az. Time Alt. Az. Time Alt. Az.
29 Apr ? 04:06:35 10° NNW 07:07:11 54° W 16:56:30 10° NE visible
30 Apr ? 15:52:06 10° SSW 18:55:09 56° W 04:41:49 10° SE visible
02 May ? 03:38:30 10° NNW 06:44:26 57° W 16:27:07 10° NE visible
03 May ? 15:24:04 10° SSW 18:32:24 59° W 04:12:15 10° SE visible
05 May ? 03:10:26 10° NNW 06:21:39 61° W 15:57:13 10° NE visible
06 May ? 14:56:01 10° SSW 18:09:37 62° W 03:42:05 10° SE visible
08 May ? 02:42:19 10° NNW 05:58:52 64° W 15:26:39 10° NE visible
